Find Starlink 4257

NORAD ID: 53184 Int'l Des: 2022-083 Owner: SPXS Country: US Constellation: starlink operational
LEOCIRCULAR

实时位置

正在加载3D地球...

关于 Starlink 4257

正在加载描述...

即将过境

Passes for default location (London). Set your location on the main map for personalized predictions.

高度历史

Loading altitude history...

两行轨道根数

1 53184U 22083BE 26106.56117764 .00000996 00000-0 80645-4 0 9999
2 53184 53.2175 313.6941 0001466 88.2983 271.8177 15.08839645207649
Epoch: Apr 16, 2026 • Age: 20 hours

当前状态

高度 543.2 km
速度 7.60 km/s
星下点 43.20°N, 104.01°E
发射日期 Jul 17, 2022
运行时间 3.7 years
类型 internet

技术详情

分类 Payload
质量 297.00 kg
干质量 275.00 kg
总质量 297.00 kg
长度 0.20 m
直径 2.80 m
跨度 9.00 m
形状 Box + pan
制造商 SPXS
平台类型 Starlink
阶段状态 In Orbit
所有者/国家 SPXS/US

Most Searched